Location: Asheville, NC
(35.6000°N, 82.5500°W)
Time: 17:02:01
(UTC-04:00)

AO-92 - Visible Passes

Search period start: 22 May 2018 00:00
Search period end: 01 June 2018 00:00
Orbit: 491 x 504 km, 97.5° (Epoch: 21 May)

Date Brightness Start Highest point End Pass type
(mag) Time Alt. Az. Time Alt. Az. Time Alt. Az.
22 May ? 21:37:08 10° ENE 21:37:43 10° ENE 21:38:18 10° ENE visible
22 May ? 23:11:23 40° W 23:11:23 40° W 23:14:30 10° NNW visible
23 May ? 22:50:49 80° NW 22:50:49 80° NW 22:54:21 10° NNW visible
24 May ? 22:30:15 47° E 22:30:23 48° ENE 22:33:57 10° N visible
25 May ? 22:09:41 25° E 22:10:10 26° ENE 22:13:15 10° NNE visible
25 May ? 23:44:19 16° W 23:44:19 16° W 23:46:09 10° NW visible
26 May ? 21:49:07 14° E 21:50:01 15° ENE 21:52:05 10° NE visible
26 May ? 23:23:45 28° W 23:23:45 28° W 23:26:39 10° NW visible
27 May ? 23:03:11 56° W 23:03:11 56° W 23:06:41 10° NNW visible
28 May ? 22:42:36 71° E 22:42:45 73° ENE 22:46:25 10° N visible
29 May ? 22:22:02 35° E 22:22:30 36° ENE 22:25:54 10° N visible
29 May ? 23:56:40 11° W 23:56:40 11° W 23:57:19 10° WNW visible
30 May ? 22:01:28 19° E 22:02:17 20° ENE 22:05:03 10° NNE visible
30 May ? 23:36:06 20° W 23:36:06 20° W 23:38:37 10° NW visible
31 May ? 21:40:54 10° E 21:42:08 11° ENE 21:43:24 10° NE visible
31 May ? 23:15:31 37° W 23:15:31 37° W 23:18:53 10° NNW visible
